Date String (YYYY-MM-DD hh:mm:ss) UTC,Instrument flags,Ambient pressure (hPa),Sample flow (lpm),Bypass flow (lpm),Sample temperature (°C),Ambient temperature (°C),ASC tube jacket temperature (°C),LED temperature (°C),Box temperature (°C),Sample RH (%),Span deviation,Mass concentration (μg/m³),Mass concentration (μg/m³),Mass concentration (μg/m³)
DateTimeUTC,F1_M11,P_M11,Q1_M11,Q2_M11,T1_M11,T2_M11,T3_M11,T4_M11,T5_M11,U1_M11,ZSPAN_M11,X0_M11,X2_M11,X1_M11
2021-10-03 15:00:00,,0832.1,5.00,0.00,30.0,29.2,00.0,39.0,31.8,17.4,0001.5,0010.30,0004.64,0004.20
2021-10-03 15:01:00,,0832.1,5.01,0.00,30.0,29.3,00.0,39.0,31.8,18.2,0001.7,0010.80,0004.70,0004.21
2021-10-03 15:02:00,,0832.1,5.00,0.00,30.0,29.3,00.0,39.0,31.8,18.0,0001.9,0010.77,0004.72,0004.21
2021-10-03 15:03:00,,0832.1,5.00,0.00,30.0,29.3,00.0,39.0,31.8,18.0,0001.7,0010.80,0004.70,0004.20
2021-10-03 15:04:00,,0832.1,4.99,0.00,30.0,29.3,00.0,39.0,31.9,18.4,0001.5,0010.92,0004.69,0004.21
2021-10-03 15:05:00,,0832.1,5.00,0.00,30.1,29.3,00.0,39.1,31.9,18.4,0001.8,0010.82,0004.67,0004.19
2021-10-03 15:06:00,,0832.1,5.02,0.00,30.1,29.3,00.0,39.1,31.9,18.3,0001.7,0011.18,0004.68,0004.20
2021-10-03 15:07:00,,0832.1,5.00,0.00,30.1,29.4,00.0,39.1,31.9,18.0,0001.7,0011.13,0004.70,0004.22
2021-10-03 15:08:00,,0832.1,5.00,0.00,30.1,29.4,00.0,39.1,31.9,17.9,0001.0,0011.19,0004.72,0004.23
2021-10-03 15:09:00,,0832.0,5.00,0.00,30.1,29.4,00.0,39.1,31.9,18.0,0001.3,0011.44,0004.75,0004.25
2021-10-03 15:10:00,,0832.1,5.00,0.00,30.1,29.4,00.0,39.1,31.9,17.8,0001.7,0011.53,0004.76,0004.26
2021-10-03 15:11:00,,0832.1,5.00,0.00,30.1,29.4,00.0,39.2,32.0,18.0,0001.6,0010.55,0004.80,0004.28
2021-10-03 15:12:00,,0832.1,5.00,0.00,30.2,29.4,00.0,39.2,32.0,17.6,0001.2,0009.93,0004.79,0004.28
2021-10-03 15:13:00,,0832.1,4.99,0.00,30.2,29.5,00.0,39.2,32.0,17.6,0001.1,0009.74,0004.78,0004.28
2021-10-03 15:14:00,,0832.1,5.01,0.00,30.2,29.5,00.0,39.2,32.0,17.6,0001.1,0009.67,0004.83,0004.30
2021-10-03 15:15:00,,0832.1,5.01,0.00,30.2,29.5,00.0,39.2,32.0,17.7,0000.9,0009.70,0004.86,0004.31
2021-10-03 15:16:00,,0832.1,4.99,0.00,30.2,29.5,00.0,39.2,32.0,17.5,0000.2,0010.20,0004.92,0004.32
2021-10-03 15:17:00,,0832.1,5.00,0.00,30.3,29.5,00.0,39.3,32.1,17.7,0000.1,0009.70,0004.90,0004.31
2021-10-03 15:18:00,,0832.0,5.01,0.00,30.3,29.5,00.0,39.3,32.1,17.2,0000.3,0009.75,0004.90,0004.31
2021-10-03 15:19:00,,0832.0,5.00,0.00,30.3,29.6,00.0,39.3,32.1,17.2,0000.9,0009.82,0004.90,0004.30
2021-10-03 15:20:00,,0832.0,4.99,0.00,30.3,29.6,00.0,39.3,32.1,17.1,0000.9,0009.96,0004.90,0004.31
2021-10-03 15:21:00,,0832.0,5.01,0.00,30.3,29.6,00.0,39.3,32.1,17.1,0001.1,0009.68,0004.89,0004.30
2021-10-03 15:22:00,,0831.9,5.00,0.00,30.3,29.6,00.0,39.4,32.1,17.1,0001.0,0009.52,0004.86,0004.30
2021-10-03 15:23:00,,0832.0,5.01,0.00,30.4,29.6,00.0,39.4,32.1,17.0,0001.2,0009.60,0004.82,0004.29
2021-10-03 15:24:00,,0832.0,5.00,0.00,30.4,29.6,00.0,39.4,32.2,17.0,0001.4,0010.05,0004.79,0004.28
2021-10-03 15:25:00,,0832.1,5.00,0.00,30.4,29.6,00.0,39.4,32.2,17.1,0001.6,0009.92,0004.77,0004.27
2021-10-03 15:26:00,,0832.1,4.99,0.00,30.4,29.6,00.0,39.4,32.2,16.8,0001.7,0009.82,0004.75,0004.25
2021-10-03 15:27:00,,0832.1,5.00,0.00,30.4,29.7,00.0,39.4,32.2,17.0,0002.1,0009.30,0004.69,0004.24
2021-10-03 15:28:00,,0832.1,5.01,0.00,30.4,29.7,00.0,39.4,32.2,16.9,0002.7,0009.41,0004.69,0004.24
2021-10-03 15:29:00,,0832.1,5.00,0.00,30.4,29.7,00.0,39.4,32.2,16.6,0002.5,0009.70,0004.67,0004.24
2021-10-03 15:30:00,,0832.1,4.99,0.00,30.5,29.7,00.0,39.5,32.3,17.0,0002.1,0010.31,0004.66,0004.22
2021-10-03 15:31:00,,0832.1,5.00,0.00,30.5,29.7,00.0,39.5,32.3,16.4,0001.9,0010.54,0004.62,0004.21
2021-10-03 15:32:00,,0832.1,5.00,0.00,30.5,29.8,00.0,39.5,32.3,16.5,0001.4,0011.08,0004.62,0004.20
2021-10-03 15:33:00,,0832.1,5.00,0.00,30.5,29.8,00.0,39.5,32.3,16.7,0001.4,0011.20,0004.61,0004.19
2021-10-03 15:34:00,,0832.1,5.01,0.00,30.5,29.8,00.0,39.5,32.3,17.0,0001.3,0011.26,0004.62,0004.18
2021-10-03 15:35:00,,0832.1,5.00,0.00,30.6,29.8,00.0,39.6,32.4,16.8,0001.4,0010.51,0004.62,0004.20
2021-10-03 15:36:00,,0832.1,5.01,0.00,30.6,29.8,00.0,39.6,32.4,16.7,0001.4,0010.50,0004.61,0004.20
2021-10-03 15:37:00,,0832.1,5.01,0.00,30.6,29.8,00.0,39.6,32.4,16.8,0001.5,0010.77,0004.62,0004.20
2021-10-03 15:38:00,,0832.1,5.00,0.00,30.6,29.9,00.0,39.6,32.4,16.7,0001.6,0011.24,0004.64,0004.21
2021-10-03 15:39:00,,0832.1,5.00,0.00,30.6,29.9,00.0,39.6,32.4,16.4,0001.4,0011.14,0004.65,0004.22
2021-10-03 15:40:00,,0832.1,4.98,0.00,30.6,29.9,00.0,39.6,32.4,16.2,0001.6,0010.87,0004.65,0004.22
2021-10-03 15:41:00,,0832.1,5.01,0.00,30.6,29.9,00.0,39.7,32.4,16.3,0001.6,0010.13,0004.62,0004.22
2021-10-03 15:42:00,,0832.0,5.00,0.00,30.7,29.9,00.0,39.7,32.4,16.0,0001.8,0009.88,0004.63,0004.21
2021-10-03 15:43:00,,0832.1,5.00,0.00,30.7,29.9,00.0,39.7,32.4,14.6,0001.9,0009.10,0004.62,0004.19
2021-10-03 15:44:00,,0832.0,5.00,0.00,30.7,29.9,00.0,39.7,32.5,14.5,0002.0,0009.03,0004.63,0004.19
2021-10-03 15:45:00,,0832.0,5.00,0.00,30.7,29.9,00.0,39.7,32.5,14.7,0002.1,0008.98,0004.61,0004.18
2021-10-03 15:46:00,,0832.1,5.00,0.00,30.7,30.0,00.0,39.7,32.5,15.2,0001.5,0009.05,0004.64,0004.17
2021-10-03 15:47:00,,0832.1,5.00,0.00,30.7,30.0,00.0,39.7,32.5,15.0,0001.1,0009.00,0004.65,0004.15
2021-10-03 15:48:00,,0832.1,5.00,0.00,30.7,30.0,00.0,39.8,32.5,14.9,0001.2,0008.89,0004.62,0004.14
2021-10-03 15:49:00,,0832.1,5.00,0.00,30.8,30.0,00.0,39.8,32.5,15.3,0001.5,0008.68,0004.60,0004.13
2021-10-03 15:50:00,,0832.1,5.01,0.00,30.8,30.0,00.0,39.8,32.6,14.9,0001.6,0008.67,0004.57,0004.11
2021-10-03 15:51:00,,0832.1,4.99,0.00,30.8,30.1,00.0,39.8,32.6,15.1,0001.2,0008.54,0004.56,0004.11
2021-10-03 15:52:00,,0832.1,4.99,0.00,30.8,30.1,00.0,39.8,32.6,14.3,0001.2,0008.50,0004.56,0004.10
2021-10-03 15:53:00,,0832.2,5.01,0.00,30.8,30.1,00.0,39.8,32.6,15.1,0000.7,0008.22,0004.56,0004.10
2021-10-03 15:54:00,,0832.2,5.01,0.00,30.8,28.9,00.0,39.8,32.3,15.5,0000.7,0008.13,0004.55,0004.11
2021-10-03 15:55:00,,0832.2,5.00,0.00,30.7,27.0,00.0,39.8,31.9,15.7,0000.7,0008.12,0004.54,0004.12
2021-10-03 15:56:00,,0832.1,5.00,0.00,30.5,26.6,00.0,39.8,31.8,15.8,0000.1,0008.41,0004.57,0004.12
2021-10-03 15:57:00,,0832.1,5.01,0.00,30.4,27.0,00.0,39.7,31.8,16.1,0000.0,0009.01,0004.55,0004.12
2021-10-03 15:58:00,,0832.1,4.99,0.00,30.4,27.4,00.0,39.6,31.7,15.4,0000.0,0008.98,0004.53,0004.11
2021-10-03 15:59:00,,0832.2,5.01,0.00,30.3,27.8,00.0,39.6,31.8,15.4,0000.0,0008.87,0004.54,0004.10
